UOSAT 2 (UO-11)

Last updated on Sun Jun 21 2026 00:03:19 GMT+0000 (Coordinated Universal Time)

1 14781U 84021B 26171.44314262 .00001042 00000+0 11163-3 0 9990 2 14781 97.8059 136.9814 0007936 162.0618 198.0882 14.90789882257615
UTC large
Height (km)
Speed (km/s)
/
Latitude / Longitude
Inclination (degrees)
Orbital Period (minutes)
Azimuth
Elevation
Range (km)
Doppler Factor

Next 0 passes for location: London (51.5072 / 0.1276)

No passes found over London.
UOSAT 2 (UO-11)